Probability
0 0 0 0 0 0 0 0 0 0 0 0 0 0 0 0 0 0 0 0 0 0 0 0 0 0 0 0 0 0 0 0 0 0 0 0 0 0 0 0 0 0 0 0
0 0 0 0 0 0 0 0 0 0 0 0 0 0 0 0 0 0 0 0 0 0 0 0 0 0 0 0 0 0 0 0 0 0 0 0 0 0 0 0 0 0 0 0
0 0 0 0 0 0 0 0 0 0 0 0 0 0 0 0 0 0 0 0 0 0 0 0 0 0 0 0 0 0 0 0 0 0 0 0 0 0 0 0 0 0 0 0
0 0 0 0 0 0 0 0 0 0 0 0 0 0 0 0 0 0 0 0 0 0 0 0 0 0 0 0 0 0 0 0 0 0 0 0 0 0 0 0 0 0 0 0
0 0 0 0 0 0 0 0 0 0 0 0 0 0 0 0 0 0 0 0 0 0 0 0 0 0 0 0 0 0 0 0 0 0 0 0 0 0 0 0 0 0 0 0
0 0 0 0 0 0 0 0 0 0 0 0 0 0 0 0 0 0 0 0 0 0 0 0 0 0 0 0 0 0 0 0 0 0 0 0 0 0 0 0 0 0 0 0
0 0 0 0 0 0 0 0 0 0 0 0 0 0 0 0 0 0 0 0 0 0 0 0 0 0 0 0 0 0 0 0 0 0 0 0 0 0 0 0 0 0 0 0
0 0 0 0 0 0 0 0 0 0 0 0 0 0 0 0 0 0 0 0 0 0 0 0 0 0 0 0 0 0 0 0 0 0 0 0 0 0 0 0 0 0 0 0
0 0 0 0 0 0 0 0 0 0 0 0 0 0 0 0 0 0 0 0 0 0 0 0 0 0 0 0 0 0 0 0 0 0 0 0 0 0 0 0 0 0 0 0
0 0 0 0 0 0 0 0 0 0 0 0 0 0 0 0 0 0 0 0 0 0 0 0 0 0 0 0 0 0 0 0 0 0 0 0 0 0 0 0 0 0 0 0
0 0 0 0 0 0 0 0 0 0 0 0 0 0 0 0 0 0 0 0 0 0 0 0 0 0 0 0 0 0 0 0 0 0 0 0 0 0 0 0 0 0 0 0
0 0 0 0 0 0 0 0 0 0 0 0 0 0 0 0 0 0 0 0 0 0 0 0 0 0 0 0 0 0 0 0 0 0 0 0 0 0 0 0 0 0 0 0
0 0 0 0 0 0 0 0 0 0 0 0 0 0 0 0 0 0 0 0 0 0 0 0 0 0 0 0 0 0 0 0 0 0 0 0 0 0 0 0 0 0 0 0
0 0 0 0 0 0 0 0 0 0 0 0 0 0 0 0 0 0 0 0 0 0 0 0 0 0 0 0 0 0 0 0 0 0 0 0 0 0 0 0 0 0 0 0
0 0 0 0 0 0 0 0 0 0 0 0 0 0 0 0 0 0 0 0 0 0 0 0 0 0 0 0 0 0 0 0 0 0 0 0 0 0 0 0 0 0 0 0
0 0 0 0 0 0 0 0 0 0 0 0 0 0 0 0 0 0 0 0 0 0 0 0 0 0 0 0 0 0 0 0 0 0 0 0 0 0 0 0 0 0 0 0
0 0 0 0 0 0 0 0 0 0 0 0 0 0 0 0 0 0 0 0 0 0 0 0 0 0 0 0 0 0 0 0 0 0 0 0 0 0 0 0 0 0 0 0
0 0 0 0 0 0 0 0 0 0 0 0 0 0 0 0 0 0 0 0 0 0 0 0 0 0 0 0 0 0 0 0 0 0 0 0 0 0 0 0 0 0 0 0
0 0 0 0 0 0 0 0 0 0 0 0 0 0 0 0 0 0 0 0 0 0 0 0 0 0 0 0 0 0 0 0 0 0 0 0 0 0 0 0 0 0 0 0
0 0 0 0 0 0 0 0 0 0 0 0 0 0 0 0 0 0 0 0 0 0 0 0 0 0 0 0 0 0 0 0 0 0 0 0 0 0 0 0 0 0 0 0
0 0 0 0 0 0 0 0 0 0 0 0 0 0 0 0 0 0 0 0 0 0 0 0 0 0 0 0 0 0 0 0 0 0 0 0 0 0 0 0 0 0 0 0
0 0 0 0 0 0 0 0 0 0 0 0 0 0 0 0 0 0 0 0 0 0 0 0 0 0 0 0 0 0 0 0 0 0 0 0 0 0 0 0 0 0 0 0
0 0 0 0 0 0 0 0 0 0 0 0 0 0 0 0 0 0 0 0 0 0 0 0 0 0 0 0 0 0 0 0 0 0 0 0 0 0 0 0 0 0 0 0
0 0 0 0 0 0 0 0 0 0 0 0 0 0 0 0 0 0 0 0 0 0 0 0 0 0 0 0 0 0 0 0 0 0 0 0 0 0 0 0 0 0 0 0
0 0 0 0 0 0 0 0 0 0 0 0 0 0 0 0 0 0 0 0 0 0 0 0 0 0 0 0 0 0 0 0 0 0 0 0 0 0 0 0 0 0 0 0
0 0 0 0 0 0 0 0 0 0 0 0 0 0 0 0 0 0 0 0 0 0 0 0 0 0 0 0 0 0 0 0 0 0 0 0 0 0 0 0 0 0 0 0
0 0 0 0 0 0 0 0 0 0 0 0 0 0 0 0 0 0 0 0 0 0 0 0 0 0 0 0 0 0 0 0 0 0 0 0 0 0 0 0 0 0 0 0
Wind_Speed
3 5 3 2 1 2 5 7 7 7 8 7 7 6 5 5 5 4 3 2 2 2 3 3 4 4 4 4 5 4 4 5 6 6 6 6 6 7 7 7 8 7 7 7
5 6 5 3 2 3 5 6 9 8 4 4 3 3 3 4 5 4 3 2 2 2 3 4 4 4 4 4 5 4 5 6 6 6 6 6 7 7 7 7 8 7 7 8
4 6 4 3 1 4 4 4 8 6 5 4 4 5 6 5 5 4 3 3 3 3 4 4 4 3 4 4 5 5 5 6 6 6 7 7 8 7 8 8 8 8 8 8
0 5 1 6 1 9 9 5 5 7 6 7 7 6 6 6 6 5 4 3 3 4 4 3 3 3 3 4 5 5 6 6 6 6 7 8 7 8 8 7 8 8 9 9
3 1 4 4 1 6 7 3 3 7 6 5 5 3 1 3 5 6 4 4 4 3 3 3 3 4 3 4 5 5 6 7 7 7 8 9 9 9 8 8 8 8 8 9
3 2 4 6 3 5 9 2 4 6 6 6 5 2 4 4 4 4 3 2 2 2 2 2 4 3 3 5 5 6 7 7 8 7 8 9 10 9 8 7 8 8 8 8
4 4 6 6 3 4 3 8 7 7 7 6 6 7 6 5 5 4 3 2 1 1 2 4 4 3 4 5 6 6 7 7 8 8 8 9 8 7 7 7 7 7 8 7
3 3 7 6 3 6 9 6 7 8 8 7 7 5 5 6 5 3 2 1 1 1 3 4 3 3 4 6 6 6 6 7 8 9 8 8 8 8 7 6 6 6 6 6
7 9 9 6 8 8 8 8 8 8 8 9 7 6 6 5 4 3 2 2 2 2 3 4 4 3 4 5 5 6 7 8 9 9 8 7 7 8 7 5 4 5 4 5
2 6 5 5 4 5 7 8 8 8 8 9 8 7 6 5 4 3 3 2 2 2 3 5 5 4 4 5 5 5 7 8 8 8 9 8 6 5 5 5 4 4 4 4
3 5 2 1 4 7 6 7 7 7 8 9 9 7 7 6 5 4 3 3 2 2 4 5 5 4 4 4 4 6 7 7 8 7 7 8 7 6 5 5 5 5 4 4
6 7 5 6 6 7 8 8 9 9 7 7 9 9 8 6 5 4 3 3 2 3 4 5 4 4 4 4 4 5 6 7 6 6 7 6 7 7 7 7 8 7 7 5
7 6 6 5 5 6 8 9 9 10 10 8 8 8 8 6 5 4 4 3 3 4 4 4 4 4 5 4 5 5 6 7 6 6 7 7 6 6 7 6 6 6 6 7
4 3 2 3 5 6 7 8 8 8 8 9 8 7 7 6 5 5 5 4 4 3 3 3 4 5 5 4 5 6 7 8 8 6 6 6 6 6 5 5 5 4 4 6
3 3 4 3 2 2 3 4 5 6 7 7 7 8 8 7 6 5 5 4 2 2 3 3 4 5 5 5 5 7 6 6 6 6 6 6 6 5 4 4 4 4 3 3
2 4 4 4 2 1 2 3 5 7 7 7 7 8 8 7 6 5 5 4 3 3 4 4 4 4 5 5 5 5 6 11 10 6 6 6 5 5 4 4 4 4 3 3
11 8 7 6 5 4 2 1 3 5 6 8 8 8 7 6 5 5 5 5 5 4 4 4 4 4 5 5 4 5 5 8 12 8 5 5 5 5 4 4 4 4 3 3
10 9 8 7 7 7 6 5 3 1 4 5 6 7 7 7 7 7 6 5 3 3 3 4 3 3 4 4 3 4 5 5 6 6 6 5 5 5 4 4 4 4 3 3
15 14 13 13 11 9 8 7 6 3 1 4 5 6 7 7 7 7 6 5 4 4 5 4 4 3 3 4 4 4 5 6 6 6 5 6 6 4 4 4 4 4 3 3
13 13 14 13 13 10 8 7 5 4 3 3 4 4 5 6 6 6 5 5 5 5 5 4 3 2 2 4 6 4 5 5 5 5 5 5 5 5 4 4 4 4 3 3
11 12 12 11 11 10 9 8 7 6 6 5 5 7 8 8 7 6 5 5 5 5 4 4 3 2 2 3 5 4 4 5 5 5 5 5 5 5 5 5 4 4 3 3
8 8 9 9 9 9 9 8 8 8 8 7 7 7 7 7 7 6 6 6 5 6 4 3 3 3 2 3 3 3 4 4 4 4 4 4 4 4 4 5 4 4 3 2
6 6 7 8 8 9 9 9 9 8 8 8 7 7 7 7 5 4 5 4 4 6 4 3 4 3 2 2 2 3 3 4 4 4 4 4 4 4 4 4 4 4 3 2
7 7 8 8 7 7 8 9 8 7 7 7 6 6 5 3 3 3 2 5 7 7 4 4 6 4 1 1 1 2 2 3 4 4 4 4 4 4 3 4 4 4 3 4
7 7 7 7 6 5 6 7 7 7 7 6 7 6 4 2 3 3 3 4 7 6 4 5 7 4 1 0 0 1 2 3 4 4 4 4 5 4 4 4 4 4 4 4
7 6 5 5 4 4 4 4 4 5 5 6 6 6 5 4 2 1 2 4 5 5 3 3 2 2 1 1 1 1 2 3 4 4 5 5 5 5 5 5 6 5 4 4
6 4 3 4 4 4 3 3 4 4 4 5 5 5 4 3 2 1 2 3 3 3 2 2 2 2 2 2 2 2 2 3 3 4 4 5 5 5 5 6 5 5 5 5
Wind_Direction
258 275 296 299 281 144 135 158 153 174 170 198 196 188 188 170 147 133 142 151 167 214 250 265 274 279 276 275 283 287 290 287 281 278 279 281 283 281 278 275 276 266 264 263
330 324 343 354 45 84 102 116 128 135 166 204 174 139 127 135 136 141 158 175 201 241 262 274 277 276 279 281 283 284 286 284 282 284 288 288 285 282 281 278 274 269 265 263
301 317 11 333 218 111 98 128 146 154 178 164 148 153 160 162 160 167 180 201 236 259 260 267 262 259 270 274 283 294 291 289 291 291 291 288 290 292 284 280 275 272 267 262
253 15 336 261 196 111 95 67 108 126 153 170 174 182 188 183 170 177 192 217 249 260 266 261 252 261 273 287 298 300 297 296 296 294 292 290 288 285 282 278 276 273 271 266
130 188 278 294 236 137 118 89 138 137 150 157 153 108 286 212 180 185 198 213 231 243 240 244 264 275 294 304 305 303 300 299 296 295 296 296 293 289 284 282 282 277 273 269
151 172 233 244 232 136 100 129 206 153 151 152 132 97 258 224 189 187 194 212 231 252 253 275 277 281 300 302 303 300 296 296 295 294 294 294 291 288 284 281 279 282 280 274
187 213 252 238 202 110 128 221 205 168 164 160 169 198 214 191 189 185 187 207 216 269 279 274 275 282 295 297 292 288 293 298 299 297 294 290 287 286 289 288 288 287 287 286
159 179 248 238 160 169 203 192 175 170 171 168 181 183 170 172 177 177 186 238 257 274 287 282 278 282 293 290 284 293 300 302 302 300 299 305 297 295 294 293 294 295 295 298
181 209 227 209 194 197 163 167 178 173 176 163 161 169 172 176 179 193 205 243 255 252 287 293 284 275 282 283 292 302 306 305 303 304 300 296 293 295 300 299 293 295 297 299
234 262 241 219 191 171 170 173 176 170 168 160 163 171 171 175 188 204 228 245 253 269 292 293 287 281 269 279 292 303 306 305 304 305 305 303 296 287 288 290 292 295 296 299
279 276 284 223 186 177 176 166 163 165 167 165 162 168 170 177 191 205 220 238 239 252 270 278 285 284 281 282 297 305 306 304 305 301 299 302 298 285 278 266 252 264 273 276
231 235 198 221 210 173 165 176 175 169 172 172 165 167 164 176 190 195 209 226 244 261 268 278 286 285 285 284 295 303 307 307 304 303 303 301 302 304 286 269 269 259 249 251
213 218 196 204 188 173 173 183 182 176 174 176 171 163 161 172 185 189 201 220 236 249 262 275 284 286 287 288 297 298 297 300 301 300 301 303 303 302 308 307 282 267 262 256
208 152 149 187 201 198 189 187 181 177 176 170 164 159 158 162 174 187 204 217 224 243 268 274 282 287 287 292 300 300 299 301 301 295 297 298 297 294 293 299 308 304 272 250
203 165 184 201 182 183 178 161 157 172 173 166 160 159 162 164 181 200 203 199 206 257 277 280 285 286 290 299 302 300 301 300 300 298 298 296 296 297 298 300 296 293 294 280
61 50 53 65 66 67 108 138 166 185 181 174 168 170 170 171 180 188 191 188 201 250 265 265 267 274 291 301 303 302 301 306 312 305 302 304 306 306 305 303 302 297 288 275
54 37 25 22 20 19 27 179 190 184 172 171 175 170 164 165 174 192 206 211 213 229 235 229 245 273 293 298 299 299 303 309 315 314 305 304 305 305 304 300 297 298 289 271
57 50 43 39 36 24 11 9 17 125 159 168 163 162 171 181 193 205 214 218 226 249 234 225 236 272 294 300 299 297 301 302 304 305 305 307 307 307 309 304 301 300 293 292
41 38 31 28 27 27 19 14 10 6 118 156 167 185 199 204 204 205 203 203 219 244 242 233 249 273 293 301 316 301 302 304 307 308 306 309 314 316 318 314 311 308 301 292
34 29 25 19 16 13 7 1 359 348 311 246 209 208 219 223 214 207 200 211 220 216 212 213 223 248 283 301 321 300 300 303 306 311 312 315 318 321 324 323 322 317 312 306
22 16 11 5 359 354 346 340 334 315 298 276 247 234 233 233 222 204 197 226 235 210 204 207 189 207 267 301 312 299 301 307 311 313 314 317 322 327 330 334 334 328 325 327
4 356 348 342 338 330 323 319 311 304 299 289 274 263 254 247 235 222 217 215 205 191 188 184 185 219 274 312 302 305 310 314 319 321 321 325 327 329 332 339 338 334 340 344
335 327 323 318 314 308 310 311 308 305 301 296 288 278 262 251 233 214 235 225 179 182 180 191 202 221 287 315 305 313 322 329 332 331 326 323 322 324 334 338 336 335 348 356
318 313 309 307 315 321 317 312 315 313 310 308 304 297 292 284 274 245 217 176 172 173 180 200 213 226 259 280 302 322 332 337 333 328 329 328 331 342 351 348 347 349 359 6
307 306 309 317 321 313 306 315 327 333 335 333 330 326 318 292 246 225 172 166 168 170 179 202 217 224 193 182 293 341 350 349 346 342 344 342 346 353 359 354 355 0 5 6
298 296 296 297 294 297 310 327 335 333 335 335 332 329 329 326 309 160 156 168 169 175 181 189 201 188 145 117 77 45 31 10 1 0 357 355 357 1 1 2 9 17 14 8
302 308 315 325 324 325 330 334 334 329 331 330 321 316 315 314 309 190 158 160 168 169 158 156 146 129 119 108 87 61 43 27 10 3 2 4 6 3 1 5 9 14 17 20